User: anonymous   Login
Location: Summit Observatory
(39.5293°N, 75.7290°W)
Time: 15:26:46
(UTC-05:00)
Language:

Gurwin Techsat 1B - Orbit

View from above orbital plane
View from above orbital plane
View from above satellite
View from above satellite

Ground track
Ground track

The orbit data is extracted from the following two-line orbital elements,

1 25397U 98043D   18021.91493412 +.00000001 +00000-0 +19259-4 0  9996
2 25397 098.6357 324.8921 0002410 086.0413 274.1041 14.23638288014698
Epoch (UTC): 21 January 2018 21:57:30
Eccentricity: 0.0002410
inclination: 98.6357°
perigee height: 811 km
apogee height: 815 km
right ascension of ascending node: 324.8921°
argument of perigee: 86.0413°
revolutions per day: 14.23638288
mean anomaly at epoch: 274.1041°
orbit number at epoch: 1469

The dashed part of the orbit path shows where the satellite is in the earth's shadow,  

DLR